When you browse on this site, cookies collect data to enhance your experience and personalize the content and advertising you see.
Visit our Privacy Policy to learn more. By continuing to use the site, you agree to this use of cookies and data.
  • In Hungary
  • List of Countries
  • For 7 days
  • Water Temperature
  • Satellite Maps
  • Weather Map
  • News
  • Weather Widgets
  • user-avatar
    Login

    Hourly Weather Lebanon

    Today, 22 February, Friday

    Time Temperature Precipitation Wind Pressure Humidity
    00:00 +2°C° 0 mm 2 mps 746 mmHg 74%
    01:00 +2°C° 0 mm 2 mps 746 mmHg 74%
    02:00 +1°C° 0 mm 2 mps 747 mmHg 74%
    03:00 +2°C° 0 mm 1 mps 747 mmHg 75%
    04:00 -1°C° 0 mm 2 mps 747 mmHg 74%
    05:00 -1°C° 0 mm 2 mps 748 mmHg 74%
    06:00 -1°C° 0 mm 3 mps 748 mmHg 74%
    07:00 0°C° 0 mm 3 mps 748 mmHg 70%
    08:00 0°C° 0 mm 3 mps 749 mmHg 66%
    09:00 +1°C° 0 mm 3 mps 749 mmHg 63%
    10:00 +2°C° 0 mm 3 mps 749 mmHg 60%
    11:00 +4°C° 0 mm 3 mps 749 mmHg 57%
    12:00 +5°C° 0 mm 3 mps 749 mmHg 54%
    13:00 +5°C° 0 mm 3 mps 748 mmHg 54%
    14:00 +5°C° 0 mm 3 mps 748 mmHg 54%
    15:00 +7°C° 0 mm 3 mps 748 mmHg 55%
    16:00 +5°C° 0 mm 3 mps 748 mmHg 60%
    17:00 +4°C° 0 mm 3 mps 748 mmHg 64%
    18:00 +3°C° 0 mm 3 mps 748 mmHg 69%
    19:00 +2°C° 0 mm 3 mps 747 mmHg 70%
    20:00 +2°C° 0 mm 3 mps 747 mmHg 71%
    21:00 +2°C° 0 mm 3 mps 747 mmHg 72%
    22:00 +2°C° 0 mm 3 mps 747 mmHg 72%
    23:00 +2°C° 0 mm 3 mps 746 mmHg 73%

    Tomorrow, 23 February, Saturday

    Time Temperature Precipitation Wind Pressure Humidity
    00:00 +2°C° 0 mm 3 mps 746 mmHg 73%
    01:00 +2°C° 0 mm 3 mps 745 mmHg 75%
    02:00 +2°C° 0 mm 3 mps 745 mmHg 77%
    03:00 +2°C° 0 mm 3 mps 744 mmHg 79%
    04:00 +2°C° 0 mm 3 mps 743 mmHg 82%
    05:00 +2°C° 0 mm 3 mps 743 mmHg 84%
    06:00 +1°C° 0 mm 4 mps 742 mmHg 86%
    07:00 +4°C° 0 mm 4 mps 742 mmHg 87%
    08:00 +5°C° 0 mm 4 mps 741 mmHg 88%
    09:00 +6°C° 0 mm 4 mps 741 mmHg 88%
    10:00 +7°C° 0.1 mm 4 mps 740 mmHg 90%
    11:00 +7°C° 0.1 mm 4 mps 739 mmHg 91%
    12:00 +8°C° 0.1 mm 4 mps 739 mmHg 93%
    13:00 +10°C° 0.3 mm 4 mps 738 mmHg 94%
    14:00 +11°C° 0.3 mm 4 mps 737 mmHg 95%
    15:00 +10°C° 0.3 mm 5 mps 736 mmHg 95%
    16:00 +12°C° 2.4 mm 5 mps 735 mmHg 96%
    17:00 +13°C° 2.4 mm 5 mps 734 mmHg 96%
    18:00 +13°C° 2.4 mm 5 mps 733 mmHg 96%
    19:00 +14°C° 2.8 mm 5 mps 732 mmHg 95%
    20:00 +14°C° 2.8 mm 6 mps 731 mmHg 94%
    21:00 +15°C° 2.8 mm 7 mps 730 mmHg 93%
    22:00 +15°C° 1.2 mm 7 mps 729 mmHg 93%
    23:00 +16°C° 1.2 mm 8 mps 728 mmHg 92%

    Day after tomorrow, 24 February, Sunday

    Time Temperature Precipitation Wind Pressure Humidity
    00:00 +16°C° 1.2 mm 8 mps 727 mmHg 92%
    01:00 +13°C° 0.2 mm 8 mps 727 mmHg 83%
    02:00 +11°C° 0.2 mm 7 mps 726 mmHg 75%
    03:00 +10°C° 0.2 mm 7 mps 726 mmHg 66%
    04:00 +9°C° 0 mm 8 mps 726 mmHg 69%
    05:00 +7°C° 0 mm 9 mps 726 mmHg 72%
    06:00 +6°C° 0 mm 9 mps 727 mmHg 75%
    07:00 +5°C° 0.1 mm 10 mps 728 mmHg 73%
    08:00 +3°C° 0.1 mm 10 mps 729 mmHg 71%
    09:00 +2°C° 0.1 mm 11 mps 730 mmHg 69%
    10:00 +2°C° 0.1 mm 11 mps 731 mmHg 68%
    11:00 +2°C° 0.1 mm 11 mps 732 mmHg 67%
    12:00 +2°C° 0.1 mm 11 mps 733 mmHg 66%
    13:00 +2°C° 0 mm 11 mps 734 mmHg 65%
    14:00 +2°C° 0 mm 11 mps 734 mmHg 63%
    15:00 +2°C° 0 mm 11 mps 735 mmHg 62%
    16:00 +1°C° 0 mm 10 mps 735 mmHg 59%
    17:00 +1°C° 0 mm 9 mps 736 mmHg 56%
    18:00 0°C° 0 mm 8 mps 737 mmHg 53%
    19:00 -1°C° 0 mm 8 mps 738 mmHg 55%
    20:00 -4°C° 0 mm 9 mps 739 mmHg 57%
    21:00 -5°C° 0 mm 9 mps 740 mmHg 60%
    22:00 -6°C° 0 mm 9 mps 741 mmHg 60%
    23:00 -6°C° 0 mm 9 mps 742 mmHg 59%

    25 February, Monday

    Time Temperature Precipitation Wind Pressure Humidity
    00:00 -7°C° 0 mm 8 mps 743 mmHg 59%
    01:00 -7°C° 0 mm 8 mps 743 mmHg 59%
    02:00 -8°C° 0 mm 7 mps 744 mmHg 59%
    03:00 -8°C° 0 mm 7 mps 745 mmHg 58%
    04:00 -8°C° 0 mm 6 mps 746 mmHg 56%
    05:00 -9°C° 0 mm 6 mps 746 mmHg 54%
    06:00 -9°C° 0 mm 6 mps 747 mmHg 52%
    07:00 -9°C° 0 mm 6 mps 748 mmHg 47%
    08:00 -8°C° 0 mm 6 mps 749 mmHg 41%
    09:00 -8°C° 0 mm 6 mps 750 mmHg 36%
    10:00 -5°C° 0 mm 5 mps 750 mmHg 32%
    11:00 -4°C° 0 mm 5 mps 750 mmHg 28%
    12:00 -2°C° 0 mm 5 mps 750 mmHg 24%
    13:00 -1°C° 0 mm 4 mps 750 mmHg 24%
    14:00 -1°C° 0 mm 4 mps 750 mmHg 23%
    15:00 0°C° 0 mm 4 mps 749 mmHg 23%
    16:00 0°C° 0 mm 3 mps 749 mmHg 26%
    17:00 -1°C° 0 mm 2 mps 749 mmHg 29%
    18:00 0°C° 0 mm 1 mps 749 mmHg 32%
    19:00 -1°C° 0 mm 1 mps 749 mmHg 33%
    20:00 -1°C° 0 mm 1 mps 750 mmHg 33%
    21:00 -1°C° 0 mm 1 mps 750 mmHg 34%
    22:00 -1°C° 0 mm 1 mps 750 mmHg 34%
    23:00 -1°C° 0 mm 1 mps 750 mmHg 34%

    26 February, Tuesday

    Time Temperature Precipitation Wind Pressure Humidity
    00:00 -2°C° 0 mm 1 mps 749 mmHg 34%
    01:00 -2°C° 0 mm 1 mps 749 mmHg 34%
    02:00 -2°C° 0 mm 1 mps 749 mmHg 35%
    03:00 -2°C° 0 mm 1 mps 749 mmHg 35%
    04:00 -2°C° 0 mm 1 mps 749 mmHg 35%
    05:00 -4°C° 0 mm 2 mps 749 mmHg 36%
    06:00 -4°C° 0 mm 2 mps 749 mmHg 37%
    07:00 -2°C° 0 mm 2 mps 749 mmHg 35%
    08:00 -1°C° 0 mm 2 mps 750 mmHg 34%
    09:00 +1°C° 0 mm 3 mps 750 mmHg 32%
    10:00 +3°C° 0 mm 3 mps 749 mmHg 34%
    11:00 +5°C° 0 mm 3 mps 748 mmHg 35%
    12:00 +8°C° 0 mm 3 mps 747 mmHg 37%
    13:00 +7°C° 0 mm 4 mps 746 mmHg 39%
    14:00 +8°C° 0 mm 4 mps 745 mmHg 42%
    15:00 +10°C° 0 mm 4 mps 745 mmHg 44%
    16:00 +7°C° 0 mm 4 mps 744 mmHg 52%
    17:00 +5°C° 0 mm 3 mps 744 mmHg 59%
    18:00 +4°C° 0 mm 3 mps 743 mmHg 67%
    19:00 +3°C° 0 mm 3 mps 743 mmHg 70%
    20:00 +3°C° 0 mm 3 mps 743 mmHg 73%
    21:00 +3°C° 0 mm 4 mps 742 mmHg 76%
    22:00 +3°C° 0 mm 4 mps 742 mmHg 78%
    23:00 +3°C° 0 mm 4 mps 742 mmHg 80%

    27 February, Wednesday

    Time Temperature Precipitation Wind Pressure Humidity
    00:00 +3°C° 0 mm 4 mps 741 mmHg 82%
    01:00 +3°C° 0 mm 4 mps 741 mmHg 83%
    02:00 +3°C° 0 mm 4 mps 741 mmHg 85%
    03:00 +3°C° 0 mm 4 mps 740 mmHg 86%
    04:00 +4°C° 0 mm 4 mps 740 mmHg 86%
    05:00 +3°C° 0 mm 5 mps 740 mmHg 86%
    06:00 +5°C° 0 mm 5 mps 740 mmHg 85%
    07:00 +6°C° 0 mm 5 mps 740 mmHg 85%
    08:00 +6°C° 0 mm 5 mps 740 mmHg 86%
    09:00 +7°C° 0 mm 5 mps 740 mmHg 86%
    10:00 +7°C° 0.1 mm 5 mps 740 mmHg 86%
    11:00 +8°C° 0.1 mm 5 mps 740 mmHg 87%
    12:00 +8°C° 0.1 mm 5 mps 740 mmHg 87%
    13:00 +7°C° 0 mm 5 mps 740 mmHg 84%
    14:00 +7°C° 0 mm 5 mps 740 mmHg 81%
    15:00 +6°C° 0 mm 5 mps 740 mmHg 78%
    16:00 +5°C° 0 mm 5 mps 740 mmHg 77%
    17:00 +3°C° 0 mm 4 mps 741 mmHg 77%
    18:00 +2°C° 0 mm 3 mps 741 mmHg 77%
    19:00 +1°C° 0 mm 3 mps 742 mmHg 76%
    20:00 0°C° 0 mm 3 mps 742 mmHg 75%
    21:00 -1°C° 0 mm 3 mps 743 mmHg 74%
    22:00 -2°C° 0 mm 3 mps 743 mmHg 72%
    23:00 -2°C° 0 mm 3 mps 743 mmHg 71%
    Show more